User: anonymous   Login
Location: Unspecified
(0.0000°N, 0.0000°E)
Time: 22:03:54
(UTC+00:00)
Language:

Kosmos-2218 - Orbit

View from above orbital plane
View from above orbital plane
View from above satellite
View from above satellite

Ground track
Ground track

The orbit data is extracted from the following two-line orbital elements,

1 22207U 92073A   18265.94166174 -.00000011 +00000-0 -27505-4 0  9991
2 22207 082.9190 066.6717 0031422 289.0516 181.2031 13.72868412297400
Epoch (UTC): 22 September 2018 22:35:59
Eccentricity: 0.0031422
inclination: 82.9190°
perigee height: 966 km
apogee height: 1012 km
right ascension of ascending node: 66.6717°
argument of perigee: 289.0516°
revolutions per day: 13.72868412
mean anomaly at epoch: 181.2031°
orbit number at epoch: 29740

The dashed part of the orbit path shows where the satellite is in the earth's shadow,  

DLR